Time,TemperatureF,DewpointF,PressureIn,WindDirection,WindDirectionDegrees,WindSpeedMPH,WindSpeedGustMPH,Humidity,HourlyPrecipIn,Conditions,Clouds,dailyrainin,SoftwareType,DateUTC
2013-04-30 00:01:00,56.3,50.5,27.08,West,270,0.0,0.0,81,0.00,,,0.00,WSDL version 420,2013-04-30 04:01:00,
2013-04-30 00:06:00,56.1,50.5,27.08,West,270,0.0,0.0,82,0.00,,,0.00,WSDL version 420,2013-04-30 04:06:00,
2013-04-30 00:11:00,56.0,50.6,27.08,WSW,248,0.0,0.0,82,0.00,,,0.00,WSDL version 420,2013-04-30 04:11:00,
2013-04-30 00:16:00,55.9,50.6,27.08,WSW,248,0.0,0.0,82,0.00,,,0.00,WSDL version 420,2013-04-30 04:16:00,
2013-04-30 00:21:00,55.9,50.6,27.08,WSW,248,0.0,0.0,82,0.00,,,0.00,WSDL version 420,2013-04-30 04:21:00,
2013-04-30 00:26:00,55.8,50.5,27.08,WSW,248,0.0,0.0,82,0.00,,,0.00,WSDL version 420,2013-04-30 04:26:00,
2013-04-30 00:31:00,55.6,50.3,27.08,WSW,248,0.0,0.0,82,0.00,,,0.00,WSDL version 420,2013-04-30 04:31:00,
2013-04-30 00:36:00,55.4,50.1,27.08,WSW,248,0.0,0.0,83,0.00,,,0.00,WSDL version 420,2013-04-30 04:36:00,
2013-04-30 00:41:00,55.0,49.7,27.08,WSW,248,0.0,0.0,82,0.00,,,0.00,WSDL version 420,2013-04-30 04:41:00,
2013-04-30 00:46:00,54.8,49.6,27.08,WSW,248,0.0,0.0,83,0.00,,,0.00,WSDL version 420,2013-04-30 04:46:00,
2013-04-30 00:51:00,54.6,49.6,27.08,WSW,248,0.0,0.0,83,0.00,,,0.00,WSDL version 420,2013-04-30 04:51:00,
2013-04-30 00:56:00,54.4,49.4,27.08,WSW,248,0.0,0.0,83,0.00,,,0.00,WSDL version 420,2013-04-30 04:56:00,
2013-04-30 01:01:00,54.1,49.2,27.08,WSW,248,0.0,0.0,83,0.00,,,0.00,WSDL version 420,2013-04-30 05:01:00,
2013-04-30 01:06:00,53.9,49.1,27.08,WSW,248,0.0,0.0,83,0.00,,,0.00,WSDL version 420,2013-04-30 05:06:00,
2013-04-30 01:11:00,53.7,48.9,27.08,WSW,248,0.0,0.0,83,0.00,,,0.00,WSDL version 420,2013-04-30 05:11:00,
2013-04-30 01:16:00,53.5,48.9,27.08,WSW,248,0.0,0.0,84,0.00,,,0.00,WSDL version 420,2013-04-30 05:16:00,
2013-04-30 01:21:00,53.3,48.7,27.08,WSW,248,0.0,0.0,84,0.00,,,0.00,WSDL version 420,2013-04-30 05:21:00,
2013-04-30 01:26:00,53.2,48.7,27.08,WSW,248,0.0,0.0,84,0.00,,,0.00,WSDL version 420,2013-04-30 05:26:00,
2013-04-30 01:31:00,53.0,48.6,27.08,WSW,248,0.0,0.0,86,0.00,,,0.00,WSDL version 420,2013-04-30 05:31:00,
2013-04-30 01:36:00,52.8,48.6,27.08,WSW,248,0.0,0.0,86,0.00,,,0.00,WSDL version 420,2013-04-30 05:36:00,
2013-04-30 01:41:00,52.5,48.1,27.08,WSW,248,0.0,0.0,84,0.00,,,0.00,WSDL version 420,2013-04-30 05:41:00,
2013-04-30 01:46:00,52.3,48.1,27.08,WSW,248,0.0,0.0,86,0.00,,,0.00,WSDL version 420,2013-04-30 05:46:00,
2013-04-30 01:51:00,52.2,48.0,27.08,WNW,288,0.0,0.0,86,0.00,,,0.00,WSDL version 420,2013-04-30 05:51:00,
2013-04-30 01:56:00,52.2,48.0,27.08,West,270,0.0,0.0,86,0.00,,,0.00,WSDL version 420,2013-04-30 05:56:00,
2013-04-30 02:01:00,52.0,47.8,27.05,West,270,0.0,0.0,86,0.00,,,0.00,WSDL version 420,2013-04-30 06:01:00,
2013-04-30 02:06:00,52.0,47.9,27.05,West,270,0.0,0.0,87,0.00,,,0.00,WSDL version 420,2013-04-30 06:06:00,
2013-04-30 02:11:00,51.8,47.8,27.05,West,270,0.0,0.0,87,0.00,,,0.00,WSDL version 420,2013-04-30 06:11:00,
2013-04-30 02:16:00,51.6,47.8,27.08,West,270,0.0,0.0,87,0.00,,,0.00,WSDL version 420,2013-04-30 06:16:00,
2013-04-30 02:21:00,51.6,47.7,27.08,West,270,0.0,0.0,87,0.00,,,0.00,WSDL version 420,2013-04-30 06:21:00,
2013-04-30 02:26:00,51.4,47.6,27.08,West,270,0.0,0.0,87,0.00,,,0.00,WSDL version 420,2013-04-30 06:26:00,
2013-04-30 02:31:00,51.4,47.6,27.08,West,270,0.0,0.0,87,0.00,,,0.00,WSDL version 420,2013-04-30 06:31:00,
2013-04-30 02:36:00,51.2,47.4,27.08,West,270,0.0,0.0,87,0.00,,,0.00,WSDL version 420,2013-04-30 06:36:00,
2013-04-30 02:41:00,50.9,47.1,27.08,West,270,0.0,0.0,87,0.00,,,0.00,WSDL version 420,2013-04-30 06:41:00,
2013-04-30 02:46:00,50.8,47.0,27.08,West,270,0.0,0.0,87,0.00,,,0.00,WSDL version 420,2013-04-30 06:46:00,
2013-04-30 02:51:00,50.8,47.0,27.08,West,270,0.0,0.0,88,0.00,,,0.00,WSDL version 420,2013-04-30 06:51:00,
2013-04-30 02:56:00,50.7,47.0,27.08,West,270,0.0,0.0,87,0.00,,,0.00,WSDL version 420,2013-04-30 06:56:00,
2013-04-30 03:01:00,50.5,47.1,27.08,West,270,0.0,0.0,88,0.00,,,0.00,WSDL version 420,2013-04-30 07:01:00,
2013-04-30 03:06:00,50.6,47.1,27.08,West,270,0.0,0.0,88,0.00,,,0.00,WSDL version 420,2013-04-30 07:06:00,
2013-04-30 03:11:00,50.6,47.1,27.08,West,270,0.0,0.0,88,0.00,,,0.00,WSDL version 420,2013-04-30 07:11:00,
2013-04-30 03:16:00,50.6,47.4,27.08,West,270,0.0,0.0,89,0.00,,,0.00,WSDL version 420,2013-04-30 07:16:00,
2013-04-30 03:21:00,50.7,47.6,27.08,SSE,158,0.0,0.0,89,0.00,,,0.00,WSDL version 420,2013-04-30 07:21:00,
2013-04-30 03:26:00,50.8,47.8,27.08,South,180,0.0,0.0,90,0.00,,,0.00,WSDL version 420,2013-04-30 07:26:00,
2013-04-30 03:31:00,51.0,48.1,27.08,South,180,0.0,0.0,90,0.00,,,0.00,WSDL version 420,2013-04-30 07:31:00,
2013-04-30 03:36:00,51.2,48.5,27.08,South,180,0.0,0.0,91,0.00,,,0.00,WSDL version 420,2013-04-30 07:36:00,
2013-04-30 03:41:00,51.3,48.8,27.08,West,270,0.0,0.0,91,0.00,,,0.00,WSDL version 420,2013-04-30 07:41:00,
2013-04-30 03:46:00,51.4,48.9,27.08,West,270,0.0,0.0,91,0.00,,,0.00,WSDL version 420,2013-04-30 07:46:00,
2013-04-30 03:51:00,51.6,49.1,27.08,West,270,0.0,0.0,91,0.00,,,0.00,WSDL version 420,2013-04-30 07:51:00,
2013-04-30 03:56:00,51.6,49.1,27.08,West,270,0.0,0.0,91,0.00,,,0.00,WSDL version 420,2013-04-30 07:56:00,
2013-04-30 04:01:00,51.8,49.1,27.08,West,270,0.0,0.0,91,0.00,,,0.00,WSDL version 420,2013-04-30 08:01:00,
2013-04-30 04:06:00,52.0,49.5,27.08,West,270,0.0,0.0,91,0.00,,,0.00,WSDL version 420,2013-04-30 08:06:00,
2013-04-30 04:11:00,52.1,49.6,27.08,West,270,0.0,0.0,91,0.00,,,0.00,WSDL version 420,2013-04-30 08:11:00,
2013-04-30 04:16:00,52.2,49.6,27.08,West,270,0.0,0.0,91,0.00,,,0.00,WSDL version 420,2013-04-30 08:16:00,
2013-04-30 04:21:00,52.3,49.8,27.08,West,270,0.0,0.0,91,0.00,,,0.00,WSDL version 420,2013-04-30 08:21:00,
2013-04-30 04:26:00,52.3,49.8,27.08,West,270,0.0,0.0,91,0.00,,,0.00,WSDL version 420,2013-04-30 08:26:00,
2013-04-30 04:31:00,52.3,49.8,27.08,West,270,0.0,0.0,91,0.00,,,0.00,WSDL version 420,2013-04-30 08:31:00,
2013-04-30 04:36:00,52.6,50.1,27.08,West,270,0.0,0.0,91,0.00,,,0.00,WSDL version 420,2013-04-30 08:36:00,
2013-04-30 04:41:00,52.8,50.5,27.08,West,270,0.0,0.0,92,0.00,,,0.00,WSDL version 420,2013-04-30 08:41:00,
2013-04-30 04:46:00,52.9,50.7,27.08,SW,225,0.0,0.0,92,0.00,,,0.00,WSDL version 420,2013-04-30 08:46:00,
2013-04-30 04:51:00,53.1,50.9,27.08,SW,225,0.0,0.0,92,0.00,,,0.00,WSDL version 420,2013-04-30 08:51:00,
2013-04-30 04:56:00,53.1,50.9,27.08,SW,225,0.0,0.0,92,0.00,,,0.00,WSDL version 420,2013-04-30 08:56:00,
2013-04-30 05:01:00,53.2,51.0,27.08,SW,225,0.0,0.0,92,0.00,,,0.00,WSDL version 420,2013-04-30 09:01:00,
2013-04-30 05:06:00,53.5,51.3,27.08,SW,225,0.0,0.0,92,0.00,,,0.00,WSDL version 420,2013-04-30 09:06:00,
2013-04-30 05:11:00,53.8,51.7,27.08,East,87,0.0,0.0,93,0.00,,,0.00,WSDL version 420,2013-04-30 09:11:00,
2013-04-30 05:16:00,53.8,51.9,27.11,East,90,0.0,0.0,93,0.00,,,0.00,WSDL version 420,2013-04-30 09:16:00,
2013-04-30 05:21:00,54.0,52.1,27.11,ESE,113,0.0,0.0,93,0.00,,,0.00,WSDL version 420,2013-04-30 09:21:00,
2013-04-30 05:26:00,54.0,52.1,27.11,ESE,113,0.0,0.0,93,0.00,,,0.00,WSDL version 420,2013-04-30 09:26:00,
2013-04-30 05:31:00,54.1,52.2,27.11,ESE,113,0.0,0.0,93,0.00,,,0.00,WSDL version 420,2013-04-30 09:31:00,
2013-04-30 05:36:00,54.1,52.2,27.11,ESE,113,0.0,0.0,93,0.00,,,0.00,WSDL version 420,2013-04-30 09:36:00,
2013-04-30 05:41:00,54.3,52.4,27.11,ESE,113,0.0,0.0,93,0.00,,,0.00,WSDL version 420,2013-04-30 09:41:00,
2013-04-30 05:46:00,54.2,52.3,27.08,ENE,68,0.0,0.0,93,0.00,,,0.00,WSDL version 420,2013-04-30 09:46:00,
2013-04-30 05:51:00,54.3,52.4,27.08,ENE,68,0.0,0.0,93,0.00,,,0.00,WSDL version 420,2013-04-30 09:51:00,
2013-04-30 05:56:00,54.5,52.6,27.08,SE,135,0.0,0.0,93,0.00,,,0.00,WSDL version 420,2013-04-30 09:56:00,
2013-04-30 06:01:00,54.5,52.6,27.11,SE,135,0.0,0.0,93,0.00,,,0.00,WSDL version 420,2013-04-30 10:01:00,
2013-04-30 06:06:00,54.6,52.7,27.11,ENE,68,0.0,0.0,93,0.00,,,0.00,WSDL version 420,2013-04-30 10:06:00,
2013-04-30 06:11:00,54.8,52.9,27.11,ENE,68,0.4,1.6,93,0.00,,,0.00,WSDL version 420,2013-04-30 10:11:00,
2013-04-30 06:16:00,54.9,53.0,27.11,ENE,68,0.0,1.6,93,0.00,,,0.00,WSDL version 420,2013-04-30 10:16:00,
2013-04-30 06:21:00,55.0,53.1,27.11,ENE,68,0.0,0.0,93,0.00,,,0.00,WSDL version 420,2013-04-30 10:21:00,
2013-04-30 06:26:00,55.0,53.2,27.11,ENE,68,0.0,0.0,93,0.00,,,0.00,WSDL version 420,2013-04-30 10:26:00,
2013-04-30 06:31:00,55.0,53.3,27.11,North,360,0.0,0.0,94,0.00,,,0.00,WSDL version 420,2013-04-30 10:31:00,
2013-04-30 06:36:00,55.0,53.5,27.11,North,360,0.0,0.0,94,0.00,,,0.00,WSDL version 420,2013-04-30 10:36:00,
2013-04-30 06:41:00,55.1,53.5,27.11,ENE,68,0.0,0.0,94,0.00,,,0.00,WSDL version 420,2013-04-30 10:41:00,
2013-04-30 06:46:00,55.2,53.7,27.11,East,79,0.0,0.0,94,0.00,,,0.00,WSDL version 420,2013-04-30 10:46:00,
2013-04-30 06:51:00,55.1,53.5,27.11,ENE,70,0.2,1.6,94,0.00,,,0.00,WSDL version 420,2013-04-30 10:51:00,
2013-04-30 06:56:00,55.2,53.7,27.11,ENE,68,0.0,1.6,94,0.00,,,0.00,WSDL version 420,2013-04-30 10:56:00,
2013-04-30 07:01:00,55.2,53.7,27.11,East,79,0.0,1.1,94,0.00,,,0.00,WSDL version 420,2013-04-30 11:01:00,
2013-04-30 07:06:00,55.2,53.7,27.11,East,96,0.0,0.9,94,0.00,,,0.00,WSDL version 420,2013-04-30 11:06:00,
2013-04-30 07:11:00,55.2,53.7,27.11,East,83,0.0,0.0,94,0.00,,,0.00,WSDL version 420,2013-04-30 11:11:00,
2013-04-30 07:16:00,55.2,53.8,27.11,ESE,110,0.6,1.6,96,0.00,,,0.00,WSDL version 420,2013-04-30 11:16:00,
2013-04-30 07:21:00,55.2,54.0,27.11,SE,135,0.3,2.0,96,0.00,,,0.00,WSDL version 420,2013-04-30 11:21:00,
2013-04-30 07:26:00,55.4,53.8,27.11,ENE,68,0.0,2.0,94,0.00,,,0.00,WSDL version 420,2013-04-30 11:26:00,
2013-04-30 07:31:00,55.4,53.8,27.14,ENE,68,0.0,0.0,94,0.00,,,0.00,WSDL version 420,2013-04-30 11:31:00,
2013-04-30 07:36:00,55.4,53.8,27.14,East,90,0.0,0.0,94,0.00,,,0.00,WSDL version 420,2013-04-30 11:36:00,
2013-04-30 07:41:00,55.5,53.9,27.14,East,95,0.0,1.3,94,0.00,,,0.00,WSDL version 420,2013-04-30 11:41:00,
2013-04-30 07:46:00,55.6,54.1,27.14,ESE,113,0.0,2.7,94,0.00,,,0.00,WSDL version 420,2013-04-30 11:46:00,
2013-04-30 07:51:00,55.8,54.2,27.14,East,90,0.0,2.7,94,0.00,,,0.00,WSDL version 420,2013-04-30 11:51:00,
2013-04-30 07:56:00,55.9,54.4,27.14,ENE,65,0.0,0.0,94,0.00,,,0.00,WSDL version 420,2013-04-30 11:56:00,
2013-04-30 08:01:00,55.9,54.4,27.14,SE,128,0.1,2.2,94,0.00,,,0.00,WSDL version 420,2013-04-30 12:01:00,
2013-04-30 08:06:00,55.9,54.4,27.14,East,90,0.4,2.2,94,0.00,,,0.00,WSDL version 420,2013-04-30 12:06:00,
2013-04-30 08:11:00,55.9,54.0,27.14,East,90,0.0,1.6,93,0.00,,,0.00,WSDL version 420,2013-04-30 12:11:00,
2013-04-30 08:16:00,55.9,54.0,27.14,ENE,68,0.0,0.0,93,0.00,,,0.00,WSDL version 420,2013-04-30 12:16:00,
2013-04-30 08:21:00,56.0,54.1,27.14,ENE,68,0.0,0.0,93,0.00,,,0.00,WSDL version 420,2013-04-30 12:21:00,
2013-04-30 08:26:00,56.3,54.4,27.14,ESE,103,0.0,0.0,93,0.00,,,0.00,WSDL version 420,2013-04-30 12:26:00,
2013-04-30 08:31:00,56.4,54.5,27.14,East,79,0.0,1.3,93,0.00,,,0.00,WSDL version 420,2013-04-30 12:31:00,
2013-04-30 08:36:00,56.4,54.5,27.14,East,85,1.5,2.9,93,0.00,,,0.00,WSDL version 420,2013-04-30 12:36:00,
2013-04-30 08:41:00,56.3,54.4,27.14,ENE,76,2.0,3.6,93,0.00,,,0.00,WSDL version 420,2013-04-30 12:41:00,
2013-04-30 08:46:00,56.4,54.5,27.14,East,90,0.0,3.6,93,0.00,,,0.00,WSDL version 420,2013-04-30 12:46:00,
2013-04-30 08:51:00,56.7,54.6,27.14,ENE,60,0.4,2.2,92,0.00,,,0.00,WSDL version 420,2013-04-30 12:51:00,
2013-04-30 08:56:00,56.7,54.5,27.14,East,100,2.5,3.1,92,0.00,,,0.00,WSDL version 420,2013-04-30 12:56:00,
2013-04-30 09:01:00,56.8,54.6,27.17,ENE,65,0.7,3.1,92,0.00,,,0.00,WSDL version 420,2013-04-30 13:01:00,
2013-04-30 09:06:00,57.0,54.7,27.17,East,82,1.7,2.9,91,0.00,,,0.00,WSDL version 420,2013-04-30 13:06:00,
2013-04-30 09:11:00,57.2,54.7,27.17,East,100,0.1,2.7,91,0.00,,,0.00,WSDL version 420,2013-04-30 13:11:00,
2013-04-30 09:16:00,57.4,54.6,27.17,East,87,0.7,3.1,90,0.00,,,0.00,WSDL version 420,2013-04-30 13:16:00,
2013-04-30 09:21:00,57.7,54.6,27.17,ENE,71,0.5,3.1,89,0.00,,,0.00,WSDL version 420,2013-04-30 13:21:00,
2013-04-30 09:26:00,58.0,54.5,27.17,ESE,115,0.0,4.0,88,0.00,,,0.00,WSDL version 420,2013-04-30 13:26:00,
2013-04-30 09:31:00,58.2,54.4,27.14,East,96,1.5,4.0,87,0.00,,,0.00,WSDL version 420,2013-04-30 13:31:00,
2013-04-30 09:36:00,59.0,54.7,27.14,ESE,110,0.8,2.7,84,0.00,,,0.00,WSDL version 420,2013-04-30 13:36:00,
2013-04-30 09:41:00,59.5,54.7,27.14,East,95,1.5,3.8,83,0.00,,,0.00,WSDL version 420,2013-04-30 13:41:00,
2013-04-30 09:46:00,59.6,53.8,27.17,East,100,1.9,4.0,80,0.00,,,0.00,WSDL version 420,2013-04-30 13:46:00,
2013-04-30 09:51:00,59.4,52.9,27.17,East,79,2.2,4.0,79,0.00,,,0.00,WSDL version 420,2013-04-30 13:51:00,
2013-04-30 09:56:00,59.9,53.3,27.17,East,95,1.2,3.8,79,0.00,,,0.00,WSDL version 420,2013-04-30 13:56:00,
2013-04-30 10:01:00,60.1,53.0,27.17,ENE,75,1.2,3.8,76,0.00,,,0.00,WSDL version 420,2013-04-30 14:01:00,
2013-04-30 10:06:00,59.9,52.1,27.17,East,90,2.3,3.8,76,0.00,,,0.00,WSDL version 420,2013-04-30 14:06:00,
2013-04-30 10:11:00,59.9,52.0,27.17,East,79,0.7,3.8,74,0.00,,,0.00,WSDL version 420,2013-04-30 14:11:00,
2013-04-30 10:16:00,60.2,52.3,27.17,ESE,115,0.8,3.6,76,0.00,,,0.00,WSDL version 420,2013-04-30 14:16:00,
2013-04-30 10:21:00,60.5,52.1,27.17,ESE,104,2.7,4.0,73,0.00,,,0.00,WSDL version 420,2013-04-30 14:21:00,
2013-04-30 10:26:00,60.5,51.8,27.17,ESE,103,1.4,4.3,73,0.00,,,0.00,WSDL version 420,2013-04-30 14:26:00,
2013-04-30 10:31:00,62.9,53.8,27.17,ESE,107,2.9,4.3,70,0.00,,,0.00,WSDL version 420,2013-04-30 14:31:00,
2013-04-30 10:36:00,64.4,53.9,27.17,ESE,109,3.1,5.6,68,0.00,,,0.00,WSDL version 420,2013-04-30 14:36:00,
2013-04-30 10:41:00,63.8,52.5,27.17,East,85,2.3,5.6,67,0.00,,,0.00,WSDL version 420,2013-04-30 14:41:00,
2013-04-30 10:46:00,63.2,51.4,27.17,East,95,1.9,4.3,66,0.00,,,0.00,WSDL version 420,2013-04-30 14:46:00,
2013-04-30 10:51:00,62.9,51.2,27.17,East,98,0.5,5.6,65,0.00,,,0.00,WSDL version 420,2013-04-30 14:51:00,
2013-04-30 10:56:00,62.8,50.1,27.17,East,95,2.3,5.6,64,0.00,,,0.00,WSDL version 420,2013-04-30 14:56:00,
2013-04-30 11:01:00,62.5,49.9,27.17,East,80,1.7,5.4,63,0.00,,,0.00,WSDL version 420,2013-04-30 15:01:00,
2013-04-30 11:06:00,62.9,50.0,27.17,ESE,113,2.1,5.4,63,0.00,,,0.00,WSDL version 420,2013-04-30 15:06:00,
2013-04-30 11:11:00,63.0,50.0,27.17,East,88,0.8,4.0,62,0.00,,,0.00,WSDL version 420,2013-04-30 15:11:00,
2013-04-30 11:16:00,64.6,51.3,27.17,East,101,1.3,3.6,62,0.00,,,0.00,WSDL version 420,2013-04-30 15:16:00,
2013-04-30 11:21:00,66.4,51.8,27.17,SE,130,2.4,4.0,58,0.00,,,0.00,WSDL version 420,2013-04-30 15:21:00,
2013-04-30 11:26:00,66.3,50.9,27.17,ESE,106,1.9,4.0,57,0.00,,,0.00,WSDL version 420,2013-04-30 15:26:00,
2013-04-30 11:31:00,66.4,49.4,27.17,SE,143,4.0,6.5,53,0.00,,,0.00,WSDL version 420,2013-04-30 15:31:00,
2013-04-30 11:36:00,66.9,49.5,27.17,East,95,2.7,6.5,53,0.00,,,0.00,WSDL version 420,2013-04-30 15:36:00,
2013-04-30 11:41:00,66.5,49.0,27.17,East,79,1.6,4.7,53,0.00,,,0.00,WSDL version 420,2013-04-30 15:41:00,
2013-04-30 11:46:00,65.9,48.7,27.17,ESE,105,1.2,4.0,55,0.00,,,0.00,WSDL version 420,2013-04-30 15:46:00,
2013-04-30 11:51:00,67.0,49.0,27.17,ENE,64,1.7,4.0,51,0.00,,,0.00,WSDL version 420,2013-04-30 15:51:00,
2013-04-30 11:56:00,67.0,48.0,27.17,East,88,1.3,3.6,50,0.00,,,0.00,WSDL version 420,2013-04-30 15:56:00,
2013-04-30 12:01:00,68.0,48.1,27.17,ENE,65,3.9,6.3,48,0.00,,,0.00,WSDL version 420,2013-04-30 16:01:00,
2013-04-30 12:06:00,68.3,48.1,27.17,East,80,2.1,6.3,48,0.00,,,0.00,WSDL version 420,2013-04-30 16:06:00,
2013-04-30 12:11:00,70.0,50.3,27.17,East,93,2.6,4.0,48,0.00,,,0.00,WSDL version 420,2013-04-30 16:11:00,
2013-04-30 12:16:00,71.2,49.3,27.17,South,174,4.0,5.4,45,0.00,,,0.00,WSDL version 420,2013-04-30 16:16:00,
2013-04-30 12:21:00,71.2,48.4,27.17,SE,128,3.6,5.4,44,0.00,,,0.00,WSDL version 420,2013-04-30 16:21:00,
2013-04-30 12:26:00,71.6,48.7,27.17,SE,124,3.0,5.4,44,0.00,,,0.00,WSDL version 420,2013-04-30 16:26:00,
2013-04-30 12:31:00,71.9,48.0,27.17,East,85,2.8,4.9,42,0.00,,,0.00,WSDL version 420,2013-04-30 16:31:00,
2013-04-30 12:36:00,71.5,48.5,27.17,ESE,118,2.6,5.6,44,0.00,,,0.00,WSDL version 420,2013-04-30 16:36:00,
2013-04-30 12:41:00,71.9,48.2,27.17,SSE,148,2.5,6.3,43,0.00,,,0.00,WSDL version 420,2013-04-30 16:41:00,
2013-04-30 12:46:00,71.2,47.5,27.17,SE,132,3.5,6.3,43,0.00,,,0.00,WSDL version 420,2013-04-30 16:46:00,
2013-04-30 12:51:00,71.3,48.5,27.17,ESE,115,1.8,5.8,45,0.00,,,0.00,WSDL version 420,2013-04-30 16:51:00,
2013-04-30 12:56:00,72.3,48.7,27.17,ESE,105,4.3,7.4,42,0.00,,,0.00,WSDL version 420,2013-04-30 16:56:00,
2013-04-30 13:01:00,72.4,48.7,27.17,ENE,76,2.9,7.4,43,0.00,,,0.00,WSDL version 420,2013-04-30 17:01:00,
2013-04-30 13:06:00,71.9,47.8,27.17,East,100,2.8,6.0,43,0.00,,,0.00,WSDL version 420,2013-04-30 17:06:00,
2013-04-30 13:11:00,70.7,46.9,27.17,East,98,3.7,6.0,43,0.00,,,0.00,WSDL version 420,2013-04-30 17:11:00,
2013-04-30 13:16:00,71.0,47.2,27.14,ESE,106,3.6,5.8,43,0.00,,,0.00,WSDL version 420,2013-04-30 17:16:00,
2013-04-30 13:21:00,71.8,47.7,27.14,SE,140,4.9,6.5,43,0.00,,,0.00,WSDL version 420,2013-04-30 17:21:00,
2013-04-30 13:26:00,70.7,47.1,27.14,ESE,110,2.7,6.5,43,0.00,,,0.00,WSDL version 420,2013-04-30 17:26:00,
2013-04-30 13:31:00,71.7,48.9,27.14,WNW,283,2.2,5.8,45,0.00,,,0.00,WSDL version 420,2013-04-30 17:31:00,
2013-04-30 13:36:00,72.6,48.4,27.14,East,98,3.2,7.4,42,0.00,,,0.00,WSDL version 420,2013-04-30 17:36:00,
2013-04-30 13:41:00,72.6,47.7,27.14,ENE,68,3.7,7.4,41,0.00,,,0.00,WSDL version 420,2013-04-30 17:41:00,
2013-04-30 13:46:00,71.9,47.5,27.14,SW,225,2.5,7.6,42,0.00,,,0.00,WSDL version 420,2013-04-30 17:46:00,
2013-04-30 13:51:00,72.3,48.2,27.14,ESE,120,3.7,8.5,42,0.00,,,0.00,WSDL version 420,2013-04-30 17:51:00,
2013-04-30 13:56:00,72.0,46.8,27.14,East,90,4.5,8.5,41,0.00,,,0.00,WSDL version 420,2013-04-30 17:56:00,
2013-04-30 14:01:00,72.1,46.5,27.14,ENE,76,4.4,7.2,40,0.00,,,0.00,WSDL version 420,2013-04-30 18:01:00,
2013-04-30 14:06:00,71.9,47.3,27.14,East,85,3.3,8.1,41,0.00,,,0.00,WSDL version 420,2013-04-30 18:06:00,
2013-04-30 14:11:00,72.9,48.3,27.14,SSW,197,3.8,8.1,42,0.00,,,0.00,WSDL version 420,2013-04-30 18:11:00,
2013-04-30 14:16:00,74.0,48.5,27.17,SE,146,2.2,7.8,41,0.00,,,0.00,WSDL version 420,2013-04-30 18:16:00,
2013-04-30 14:21:00,74.6,48.5,27.17,ENE,75,3.7,5.6,39,0.00,,,0.00,WSDL version 420,2013-04-30 18:21:00,
2013-04-30 14:26:00,74.6,47.2,27.17,East,88,2.8,5.6,39,0.00,,,0.00,WSDL version 420,2013-04-30 18:26:00,
2013-04-30 14:31:00,74.2,47.5,27.14,SE,128,3.8,7.4,38,0.00,,,0.00,WSDL version 420,2013-04-30 18:31:00,
2013-04-30 14:36:00,72.8,46.3,27.14,ESE,110,4.9,8.5,39,0.00,,,0.00,WSDL version 420,2013-04-30 18:36:00,
2013-04-30 14:41:00,73.6,47.5,27.14,South,175,3.1,8.5,40,0.00,,,0.00,WSDL version 420,2013-04-30 18:41:00,
2013-04-30 14:46:00,75.3,48.4,27.14,East,79,4.3,6.3,39,0.00,,,0.00,WSDL version 420,2013-04-30 18:46:00,
2013-04-30 14:51:00,73.0,45.8,27.14,ENE,70,4.7,7.8,38,0.00,,,0.00,WSDL version 420,2013-04-30 18:51:00,
2013-04-30 14:56:00,73.6,47.7,27.14,ENE,64,2.6,7.8,41,0.00,,,0.00,WSDL version 420,2013-04-30 18:56:00,
2013-04-30 15:01:00,74.7,48.8,27.14,ENE,63,3.1,6.0,40,0.00,,,0.00,WSDL version 420,2013-04-30 19:01:00,
2013-04-30 15:06:00,74.8,49.4,27.14,West,275,2.1,7.2,41,0.00,,,0.00,WSDL version 420,2013-04-30 19:06:00,
2013-04-30 15:11:00,75.9,48.4,27.14,NNE,31,4.0,7.2,37,0.00,,,0.00,WSDL version 420,2013-04-30 19:11:00,
2013-04-30 15:16:00,76.8,49.6,27.14,West,273,2.5,7.2,37,0.00,,,0.00,WSDL version 420,2013-04-30 19:16:00,
2013-04-30 15:21:00,76.6,48.7,27.14,East,87,3.6,8.5,37,0.00,,,0.00,WSDL version 420,2013-04-30 19:21:00,
2013-04-30 15:26:00,74.0,46.2,27.14,ENE,70,3.1,8.5,39,0.00,,,0.00,WSDL version 420,2013-04-30 19:26:00,
2013-04-30 15:31:00,72.8,47.1,27.14,NE,55,3.2,7.8,41,0.00,,,0.00,WSDL version 420,2013-04-30 19:31:00,
2013-04-30 15:36:00,71.8,46.6,27.14,East,93,4.6,7.8,41,0.00,,,0.00,WSDL version 420,2013-04-30 19:36:00,
2013-04-30 15:41:00,73.3,48.8,27.14,ENE,60,2.0,7.2,42,0.00,,,0.00,WSDL version 420,2013-04-30 19:41:00,
2013-04-30 15:46:00,74.2,49.5,27.14,North,354,3.4,8.1,42,0.00,,,0.00,WSDL version 420,2013-04-30 19:46:00,
2013-04-30 15:51:00,74.6,49.1,27.14,East,100,3.5,8.1,40,0.00,,,0.00,WSDL version 420,2013-04-30 19:51:00,
2013-04-30 15:56:00,71.4,46.8,27.14,East,98,5.8,9.6,42,0.00,,,0.00,WSDL version 420,2013-04-30 19:56:00,
2013-04-30 16:01:00,70.4,47.2,27.14,ESE,110,3.9,9.6,43,0.00,,,0.00,WSDL version 420,2013-04-30 20:01:00,
2013-04-30 16:06:00,72.3,48.5,27.14,NE,56,1.9,7.6,43,0.00,,,0.00,WSDL version 420,2013-04-30 20:06:00,
2013-04-30 16:11:00,73.6,48.8,27.14,East,83,3.4,6.0,42,0.00,,,0.00,WSDL version 420,2013-04-30 20:11:00,
2013-04-30 16:16:00,71.4,47.4,27.14,ENE,73,2.8,5.6,43,0.00,,,0.00,WSDL version 420,2013-04-30 20:16:00,
2013-04-30 16:21:00,71.5,47.6,27.14,NNE,33,3.3,5.8,43,0.00,,,0.00,WSDL version 420,2013-04-30 20:21:00,
2013-04-30 16:26:00,70.5,47.2,27.14,North,8,2.9,5.8,44,0.00,,,0.00,WSDL version 420,2013-04-30 20:26:00,
2013-04-30 16:31:00,72.0,48.3,27.14,East,93,2.1,8.9,43,0.00,,,0.00,WSDL version 420,2013-04-30 20:31:00,
2013-04-30 16:36:00,72.6,48.3,27.14,ENE,60,3.6,8.9,42,0.00,,,0.00,WSDL version 420,2013-04-30 20:36:00,
2013-04-30 16:41:00,70.1,47.3,27.14,ENE,68,5.8,7.8,45,0.00,,,0.00,WSDL version 420,2013-04-30 20:41:00,
2013-04-30 16:46:00,68.7,46.5,27.14,NNE,31,2.9,7.8,45,0.00,,,0.00,WSDL version 420,2013-04-30 20:46:00,
2013-04-30 16:51:00,70.7,48.5,27.14,NNE,30,2.5,6.5,43,0.00,,,0.00,WSDL version 420,2013-04-30 20:51:00,
2013-04-30 16:56:00,70.6,47.2,27.14,NNE,26,1.5,6.3,44,0.00,,,0.00,WSDL version 420,2013-04-30 20:56:00,
2013-04-30 17:01:00,70.4,46.7,27.14,ENE,58,4.3,7.6,43,0.00,,,0.00,WSDL version 420,2013-04-30 21:01:00,
2013-04-30 17:06:00,70.5,47.6,27.14,ENE,76,2.9,7.6,44,0.00,,,0.00,WSDL version 420,2013-04-30 21:06:00,
2013-04-30 17:11:00,70.9,47.7,27.14,SE,140,2.5,5.6,43,0.00,,,0.00,WSDL version 420,2013-04-30 21:11:00,
2013-04-30 17:16:00,71.8,48.3,27.14,ESE,107,2.0,5.6,43,0.00,,,0.00,WSDL version 420,2013-04-30 21:16:00,
2013-04-30 17:21:00,71.6,47.3,27.14,East,80,3.5,5.4,42,0.00,,,0.00,WSDL version 420,2013-04-30 21:21:00,
2013-04-30 17:26:00,71.5,46.5,27.14,North,350,2.4,5.6,41,0.00,,,0.00,WSDL version 420,2013-04-30 21:26:00,
2013-04-30 17:31:00,71.4,46.9,27.17,ENE,65,2.1,6.5,41,0.00,,,0.00,WSDL version 420,2013-04-30 21:31:00,
2013-04-30 17:36:00,70.6,45.6,27.17,SW,217,1.9,6.5,42,0.00,,,0.00,WSDL version 420,2013-04-30 21:36:00,
2013-04-30 17:41:00,70.8,47.3,27.17,NNE,14,1.3,6.5,43,0.00,,,0.00,WSDL version 420,2013-04-30 21:41:00,
2013-04-30 17:46:00,70.5,47.0,27.17,NE,55,1.8,4.9,43,0.00,,,0.00,WSDL version 420,2013-04-30 21:46:00,
2013-04-30 17:51:00,69.3,46.1,27.17,East,88,2.0,4.9,44,0.00,,,0.00,WSDL version 420,2013-04-30 21:51:00,
2013-04-30 17:56:00,68.8,46.4,27.17,ESE,113,1.9,3.6,45,0.00,,,0.00,WSDL version 420,2013-04-30 21:56:00,
2013-04-30 18:01:00,68.5,46.8,27.17,ESE,118,2.5,6.3,47,0.00,,,0.00,WSDL version 420,2013-04-30 22:01:00,
2013-04-30 18:06:00,68.0,47.6,27.17,NE,43,2.9,6.3,48,0.00,,,0.00,WSDL version 420,2013-04-30 22:06:00,
2013-04-30 18:11:00,67.9,47.9,27.17,NE,45,1.8,5.8,48,0.00,,,0.00,WSDL version 420,2013-04-30 22:11:00,
2013-04-30 18:16:00,68.0,48.3,27.17,NE,55,2.2,3.6,50,0.00,,,0.00,WSDL version 420,2013-04-30 22:16:00,
2013-04-30 18:21:00,67.4,48.3,27.17,NE,50,2.0,5.6,51,0.00,,,0.00,WSDL version 420,2013-04-30 22:21:00,
2013-04-30 18:26:00,66.8,48.2,27.17,NNE,26,3.9,6.3,52,0.00,,,0.00,WSDL version 420,2013-04-30 22:26:00,
2013-04-30 18:31:00,66.4,48.8,27.17,ESE,113,3.5,6.9,53,0.00,,,0.00,WSDL version 420,2013-04-30 22:31:00,
2013-04-30 18:36:00,66.4,48.8,27.17,NE,48,2.3,6.9,53,0.00,,,0.00,WSDL version 420,2013-04-30 22:36:00,
2013-04-30 18:41:00,66.4,48.8,27.17,NE,51,2.1,4.3,53,0.00,,,0.00,WSDL version 420,2013-04-30 22:41:00,
2013-04-30 18:46:00,66.1,48.7,27.17,NE,34,1.9,6.5,54,0.00,,,0.00,WSDL version 420,2013-04-30 22:46:00,
2013-04-30 18:51:00,65.9,49.1,27.17,NNW,345,2.8,6.5,55,0.00,,,0.00,WSDL version 420,2013-04-30 22:51:00,
2013-04-30 18:56:00,65.4,49.7,27.17,NE,38,4.3,9.2,58,0.00,,,0.00,WSDL version 420,2013-04-30 22:56:00,
2013-04-30 19:01:00,64.8,49.8,27.17,East,82,3.8,9.2,59,0.00,,,0.00,WSDL version 420,2013-04-30 23:01:00,
2013-04-30 19:06:00,64.7,49.8,27.17,East,88,3.7,6.5,59,0.00,,,0.00,WSDL version 420,2013-04-30 23:06:00,
2013-04-30 19:11:00,64.3,50.1,27.17,ENE,65,1.7,8.7,61,0.00,,,0.00,WSDL version 420,2013-04-30 23:11:00,
2013-04-30 19:16:00,64.1,49.9,27.17,NNE,23,0.9,8.7,60,0.00,,,0.00,WSDL version 420,2013-04-30 23:16:00,
2013-04-30 19:21:00,63.8,49.8,27.17,SE,133,2.4,4.9,61,0.00,,,0.00,WSDL version 420,2013-04-30 23:21:00,
2013-04-30 19:26:00,63.4,49.9,27.17,NNE,28,2.6,6.0,61,0.00,,,0.00,WSDL version 420,2013-04-30 23:26:00,
2013-04-30 19:31:00,63.1,49.4,27.17,NE,39,0.0,6.0,61,0.00,,,0.00,WSDL version 420,2013-04-30 23:31:00,
2013-04-30 19:36:00,62.9,49.5,27.17,NE,39,1.8,5.4,63,0.00,,,0.00,WSDL version 420,2013-04-30 23:36:00,
2013-04-30 19:41:00,62.6,49.5,27.17,NNW,344,0.4,5.4,63,0.00,,,0.00,WSDL version 420,2013-04-30 23:41:00,
2013-04-30 19:46:00,62.5,49.5,27.17,NNE,33,0.0,4.0,63,0.00,,,0.00,WSDL version 420,2013-04-30 23:46:00,
2013-04-30 19:51:00,62.3,49.5,27.17,NNW,335,2.2,4.0,64,0.00,,,0.00,WSDL version 420,2013-04-30 23:51:00,
2013-04-30 19:56:00,62.1,49.5,27.17,North,360,0.0,4.0,63,0.00,,,0.00,WSDL version 420,2013-04-30 23:56:00,
2013-04-30 20:01:00,62.0,49.4,27.17,NNW,340,0.0,2.0,63,0.00,,,0.00,WSDL version 420,2013-05-01 00:01:00,
2013-04-30 20:06:00,61.7,49.6,27.17,North,350,0.4,2.7,64,0.00,,,0.00,WSDL version 420,2013-05-01 00:06:00,
2013-04-30 20:11:00,61.5,49.5,27.17,SE,143,1.9,3.1,65,0.00,,,0.00,WSDL version 420,2013-05-01 00:11:00,
2013-04-30 20:16:00,61.3,49.6,27.20,North,360,0.0,3.1,66,0.00,,,0.00,WSDL version 420,2013-05-01 00:16:00,
2013-04-30 20:21:00,61.3,49.7,27.20,WNW,293,0.0,2.0,66,0.00,,,0.00,WSDL version 420,2013-05-01 00:21:00,
2013-04-30 20:26:00,60.9,49.5,27.20,NNW,338,0.0,0.0,66,0.00,,,0.00,WSDL version 420,2013-05-01 00:26:00,
2013-04-30 20:31:00,60.7,49.7,27.20,NNW,329,0.0,0.0,67,0.00,,,0.00,WSDL version 420,2013-05-01 00:31:00,
2013-04-30 20:36:00,60.5,49.7,27.20,NW,315,0.0,0.0,68,0.00,,,0.00,WSDL version 420,2013-05-01 00:36:00,
2013-04-30 20:41:00,60.2,49.3,27.20,SSW,203,0.0,0.0,68,0.00,,,0.00,WSDL version 420,2013-05-01 00:41:00,
2013-04-30 20:46:00,59.9,49.3,27.20,SSW,203,0.0,0.0,68,0.00,,,0.00,WSDL version 420,2013-05-01 00:46:00,
2013-04-30 20:51:00,59.9,49.7,27.20,WNW,293,0.0,0.0,69,0.00,,,0.00,WSDL version 420,2013-05-01 00:51:00,
2013-04-30 20:56:00,59.8,49.8,27.20,West,270,0.0,0.0,70,0.00,,,0.00,WSDL version 420,2013-05-01 00:56:00,
2013-04-30 21:01:00,59.6,49.8,27.20,NW,321,0.0,0.0,70,0.00,,,0.00,WSDL version 420,2013-05-01 01:01:00,
2013-04-30 21:06:00,59.4,49.8,27.20,ESE,113,0.0,0.0,70,0.00,,,0.00,WSDL version 420,2013-05-01 01:06:00,
2013-04-30 21:11:00,59.1,49.5,27.20,East,90,0.0,0.0,71,0.00,,,0.00,WSDL version 420,2013-05-01 01:11:00,
2013-04-30 21:16:00,59.0,49.6,27.20,East,90,0.0,0.0,71,0.00,,,0.00,WSDL version 420,2013-05-01 01:16:00,
2013-04-30 21:21:00,59.3,49.9,27.20,North,6,0.0,0.0,72,0.00,,,0.00,WSDL version 420,2013-05-01 01:21:00,
2013-04-30 21:26:00,59.5,50.3,27.20,NNE,18,0.0,0.0,72,0.00,,,0.00,WSDL version 420,2013-05-01 01:26:00,
2013-04-30 21:31:00,59.7,50.6,27.20,NE,34,0.0,0.0,71,0.00,,,0.00,WSDL version 420,2013-05-01 01:31:00,
2013-04-30 21:36:00,59.7,50.7,27.20,North,3,0.0,0.0,72,0.00,,,0.00,WSDL version 420,2013-05-01 01:36:00,
2013-04-30 21:41:00,59.6,50.5,27.20,North,357,0.0,0.0,72,0.00,,,0.00,WSDL version 420,2013-05-01 01:41:00,
2013-04-30 21:46:00,59.6,50.8,27.23,NNE,33,0.0,0.0,72,0.00,,,0.00,WSDL version 420,2013-05-01 01:46:00,
2013-04-30 21:51:00,59.7,50.9,27.23,North,353,0.0,0.0,73,0.00,,,0.00,WSDL version 420,2013-05-01 01:51:00,
2013-04-30 21:56:00,59.7,51.0,27.23,NNE,29,0.0,0.0,73,0.00,,,0.00,WSDL version 420,2013-05-01 01:56:00,
2013-04-30 22:01:00,59.7,51.4,27.23,NNE,33,1.9,4.3,75,0.00,,,0.00,WSDL version 420,2013-05-01 02:01:00,
2013-04-30 22:06:00,59.6,51.4,27.23,NNE,20,1.6,4.3,74,0.00,,,0.00,WSDL version 420,2013-05-01 02:06:00,
2013-04-30 22:11:00,59.5,51.5,27.23,NE,55,2.4,3.8,75,0.00,,,0.00,WSDL version 420,2013-05-01 02:11:00,
2013-04-30 22:16:00,59.4,51.6,27.23,NNE,33,1.0,3.8,75,0.00,,,0.00,WSDL version 420,2013-05-01 02:16:00,
2013-04-30 22:21:00,59.4,51.7,27.23,North,8,0.6,2.9,77,0.00,,,0.00,WSDL version 420,2013-05-01 02:21:00,
2013-04-30 22:26:00,59.4,51.9,27.23,NE,55,0.1,2.9,76,0.00,,,0.00,WSDL version 420,2013-05-01 02:26:00,
2013-04-30 22:31:00,59.2,51.8,27.23,ENE,62,2.6,4.3,77,0.00,,,0.00,WSDL version 420,2013-05-01 02:31:00,
2013-04-30 22:36:00,59.2,52.1,27.23,NE,48,0.7,4.3,78,0.00,,,0.00,WSDL version 420,2013-05-01 02:36:00,
2013-04-30 22:41:00,59.1,52.0,27.23,NE,43,0.1,2.7,78,0.00,,,0.00,WSDL version 420,2013-05-01 02:41:00,
2013-04-30 22:46:00,59.0,51.8,27.23,East,84,1.0,2.5,77,0.00,,,0.00,WSDL version 420,2013-05-01 02:46:00,
2013-04-30 22:51:00,59.0,52.0,27.23,ENE,73,0.0,2.5,78,0.00,,,0.00,WSDL version 420,2013-05-01 02:51:00,
2013-04-30 22:56:00,59.0,52.2,27.23,East,100,2.1,3.6,78,0.00,,,0.00,WSDL version 420,2013-05-01 02:56:00,
2013-04-30 23:01:00,59.0,52.3,27.23,ENE,73,1.9,4.9,78,0.00,,,0.00,WSDL version 420,2013-05-01 03:01:00,
2013-04-30 23:06:00,59.0,52.5,27.23,NE,45,2.0,4.9,79,0.00,,,0.00,WSDL version 420,2013-05-01 03:06:00,
2013-04-30 23:11:00,58.9,52.6,27.23,NE,53,1.6,3.1,80,0.00,,,0.00,WSDL version 420,2013-05-01 03:11:00,
2013-04-30 23:16:00,58.8,53.0,27.23,East,95,2.1,4.3,81,0.00,,,0.00,WSDL version 420,2013-05-01 03:16:00,
2013-04-30 23:21:00,58.6,52.9,27.23,East,82,2.1,4.3,81,0.00,,,0.00,WSDL version 420,2013-05-01 03:21:00,
2013-04-30 23:26:00,58.5,52.6,27.23,East,83,2.5,3.8,80,0.00,,,0.00,WSDL version 420,2013-05-01 03:26:00,
2013-04-30 23:31:00,58.3,52.1,27.23,ENE,76,2.5,3.8,80,0.00,,,0.00,WSDL version 420,2013-05-01 03:31:00,
2013-04-30 23:36:00,58.0,51.1,27.23,ESE,104,3.0,6.3,77,0.00,,,0.00,WSDL version 420,2013-05-01 03:36:00,
2013-04-30 23:41:00,57.8,50.4,27.23,ENE,59,3.5,7.4,76,0.00,,,0.00,WSDL version 420,2013-05-01 03:41:00,
2013-04-30 23:46:00,57.6,50.1,27.23,East,85,2.6,7.4,77,0.00,,,0.00,WSDL version 420,2013-05-01 03:46:00,
2013-04-30 23:51:00,57.4,50.3,27.23,ENE,71,2.1,6.0,77,0.00,,,0.00,WSDL version 420,2013-05-01 03:51:00,
2013-04-30 23:56:00,57.4,50.2,27.23,NNE,23,1.7,6.0,77,0.00,,,0.00,WSDL version 420,2013-05-01 03:56:00,